Regional Weather Roundup
Issued by NWS Wakefield, VA

Home | Current Version | Previous Version | Graphics & Text | Print | Product List | Glossary On
Versions: 1 2 3 4 5 6 7 8 9 10 11 12 13 14 15 16 17 18 19 20 21 22 23 24 25 26 27 28 29 30 31 32 33 34 35 36 37 38 39 40 41 42 43 44 45 46 47 48 49
000
ASUS41 KAKQ 081914
RWRAKQ

REGIONAL WEATHER ROUNDUP
NATIONAL WEATHER SERVICE WAKEFIELD VA
200 PM EST MON FEB 08 2016

Note: "fair" indicates few or no clouds below 12,000 feet with no
significant weather and/or obstructions to visibility. * = Denotes
station may not report precipitation (e.g., rain,snow,etc.),
thunder or fog.

VAZ042-051-052>054-056-082000-
NORTHERN VIRGINIA

CITY           SKY/WX    TMP DP  RH WIND       PRES   REMARKS
WASH NATIONAL  CLOUDY    46  29  51 SE7       29.70F
DULLES         PTSUNNY   46  25  43 VRB7      29.69F
FORT BELVOIR   FAIR      47  27  45 VRB3      29.69F
QUANTICO       PTSUNNY   45  27  49 S5        29.72F
FREDERICKSBRG* FAIR      47  28  46 CALM      29.69F
STAFFORD*      FAIR      46  21  36 SW5       29.74S
WARRENTON      FAIR      48  28  45 SW5       29.68F
CULPEPER*      FAIR      46  23  40 S3        29.69F
MANASSAS*      SUNNY     46  27  46 S7        29.69F
LEESBURG*      FAIR      48  30  49 SW7       29.69F
WINCHESTER     PTSUNNY   45  23  42 SE7       29.66F
FRONT ROYAL*   FAIR      46  23  39 S6        29.64F
LURAY*         FAIR      46  25  42 E3        29.63F
$$

VAZ048-049-060>072-079>083-082000-
CENTRAL AND SOUTH CENTRAL VIRGINIA

CITY           SKY/WX    TMP DP  RH WIND       PRES   REMARKS
RICHMOND       CLOUDY    47  26  44 SW8       29.70F
CHESTERFIELD*  FAIR     N/A N/A N/A CALM      29.71F
PETERSBURG*    FAIR      51  15  23 CALM      29.71F
HANOVER        FAIR      47  25  42 S6        29.71F
TAPPAHANNOCK*  FAIR      47  28  47 SW3       29.71S
QUINTON*       MOCLDY    47  28  47 S3        29.70S
CHARLOTTSVILLE PTSUNNY   46  20  35 VRB3      29.66F
GORDONSVILLE*  FAIR      46  22  38 CALM      29.67F
ORANGE*        FAIR      48  21  34 S6        29.70F
LOUISA*        FAIR      48  23  37 SW5       29.67F
BUMPASS*       FAIR      46  22  38 S5        29.69F
FARMVILLE*     CLOUDY    50  23  35 CALM      29.66F
CREWE*         MOCLDY    49  24  37 CALM      29.68F
FORT PICKETT*  FAIR      49  22  34 CALM      29.68F
CHASE CITY*    CLOUDY    49  22  34 SE3       29.67F
CLARKSVILLE*   CLOUDY    52  28  40 S9        29.67F
SOUTH HILL*    FAIR      49  26  41 S6        29.75F
LAWRENCEVILLE* FAIR      50  26  39 SW5       29.69F
EMPORIA*       FAIR      48  25  40 S3        29.73F
$$

VAZ088>098-082000-
SOUTHEAST VIRGINIA

CITY           SKY/WX    TMP DP  RH WIND       PRES   REMARKS
NORFOLK        FAIR      44  32  62 NE8       29.73S
VIRGINIA BEACH FAIR      48  32  53 NE6       29.74R
NORFOLK NAVAL  PTSUNNY   46  32  58 NE7       29.75R
WEST POINT*    FAIR      46  28  48 S3        29.73S
SALUDA*        FAIR      43  34  70 E8        29.72S
NEWPORT NEWS   FAIR      47  33  58 SW7       29.73R
LANGLEY AFB    PTSUNNY   44  32  63 S7        29.72S
FORT EUSTIS    FAIR      46  27  47 VRB6      29.70F
WILLIAMSBURG*  FAIR      48  34  57 CALM      29.73F
HR EXEC AP*    FAIR      50  30  46 CALM      29.74S
FRANKLIN*      FAIR      47  28  46 SW3       29.72F
US460-WAKEFLD  FAIR      49  28  44 S3        29.71F
$$

VAZ020-022-025-037-045-082000-
WEST CENTRAL AND SOUTHWEST VIRGINIA

CITY           SKY/WX    TMP DP  RH WIND       PRES   REMARKS
STAUNTON*      FAIR      50  26  39 S8        29.64F
WAYNESBORO*    CLOUDY    44  21  40 SE8G16    29.62F
HOT SPRINGS VA MIX PCPN  32  29  88 S6        29.53F
LYNCHBURG      FAIR      46  25  43 S8        29.66F
DANVILLE       PTSUNNY   52  27  38 SW8       29.65F
SOUTH BOSTON*  FAIR      53  24  33 S7        29.66F
MARTINSVILLE   CLOUDY    45  24  44 SW5       29.66F
ROANOKE        CLOUDY    44  27  51 SE9       29.64F
BLACKSBURG     LGT RAIN  40  29  66 SW10      29.65S
DUBLIN*        DRIZZLE   38  34  87 W13       29.64S
MARION*        LGT RAIN  35  32  90 SW9       29.63F
HILLSVILLE*    LGT SNOW  33  32  96 SW8       29.60F
RICHLANDS*     FAIR      40  23  52 SW9G16    29.58F
WISE*          CLOUDY    41  18  38 SW14G21   29.58F
ABINGDON*      CLOUDY    40  33  76 CALM      29.62F
$$

MDZ021>025-VAZ099-100-082000-
SOUTHERN MARYLAND AND THE DELMARVA PENINSULA

CITY           SKY/WX    TMP DP  RH WIND       PRES   REMARKS
PATUXENT RIVER PTSUNNY   43  28  55 SE6       29.70F
BAY BRIDGE APT   N/A     43  28  56 CALM      29.72S
LEONARDTOWN    PTSUNNY   43  30  61 NE3       29.71F
DOVER          CLOUDY    42  32  66 N7        29.69F
GEORGETOWN     CLOUDY    43  31  62 VRB5      29.71F
EASTON         CLOUDY    43  30  61 E6        29.75F
CAMBRIDGE      CLOUDY    43  32  65 N5        29.71S
SALISBURY      CLOUDY    42  32  67 CALM      29.70F
OCEAN CITY     MOSUNNY   42  32  67 NE12G18   29.71F
WALLOPS ISLAND CLOUDY    41  33  73 NE14      29.71F
ACCOMACK*      CLOUDY    41  30  65 SE3       29.72R
$$

NCZ012>017-030>032-082000-
NORTH CENTRAL AND EASTERN NORTH CAROLINA

CITY           SKY/WX    TMP DP  RH WIND       PRES   REMARKS
ROANOKE RAPIDS FAIR      50  28  43 CALM      29.72F
RALEIGH        PTSUNNY   55  30  38 S12G17    29.69F
ELIZABETH CITY MOSUNNY   48  32  53 VRB3      29.74S
AHOSKIE*       MOSUNNY   48  25  39 CALM      29.73F
EDENTON*       MOSUNNY   51  30  45 SW6       29.74F
CURRITUCK*     MOSUNNY   47  35  61 NE5       29.75R
KILL DEVIL HLS MOSUNNY   49  34  57 N5        29.74R
MANTEO         MOSUNNY   46  33  61 NE3       29.75S
CAPE HATTERAS  SUNNY     48  34  58 VRB5      29.77S
TARBORO*       FAIR      54  30  39 S8        29.74S
GOLDSBORO      SUNNY     54  32  43 S9        29.71F
WASHINGTON     SUNNY     52  30  43 CALM      29.73F
GREENVILLE     SUNNY     54  30  40 SW6       29.77S
NEW BERN       SUNNY     55  30  38 VRB7G21   29.76F
WILMINGTON     SUNNY     55  32  41 S15       29.76F
$$

VAZ048-082000-
ELSEWHERE

CITY           SKY/WX    TMP DP  RH WIND       PRES   REMARKS
HARRISBURG PA  PTSUNNY   42  27  55 SE5       29.69F
BALTIMORE      PTSUNNY   44  28  53 E8        29.69F
ANNAPOLIS      SUNNY     42  30  62 SE5       29.71F
ANDREWS AFB    FAIR      45  29  54 S3        29.68F
PHILADELPHIA   CLOUDY    42  25  50 E9        29.72S
HENDERSON NC   PTSUNNY   53  24  31 S8        29.68F
GREENSBORO     CLOUDY    49  24  37 S17       29.63F
ROCKY MOUNT    SUNNY     52  30  43 S8        29.73F
$$

VAZ100-082000-
MARINE

STATION/POSITION TIME  TEMP    WIND        PRES    WAVE   SWELL
                       AIR SEA DIR/SP/G            HT/PER HT/PER
                 (UTC) (F)     (DEG/KT/KT) (MB)    (FT/S) (FT/S)
BRANDYWINE LGT   1800   40      30/  2/  2 1006.1F
CAPE MAY NJ      1800   42 42  350/  5/  9 1005.7F
LEWES DE         1800   40 41  330/  5/  6 1006.2F
15NM E FENWICK I 1850   38 44              1005.9F  15/14
OCEAN-CITY-INLET 1800   40 42   70/  7/ 13 1005.5F
WACHAPREAGUE VA  1800   41 43   70/  9/ 11 1006.6F
THOMAS POINT MD  1900   40 39  360/  2/  2 1006.7F
GOOSES REEF MD   1900   40 40  360/  6/  6 1007.2F   1
COVE POINT MD    1800   38      10/  8/ 11 1007.0F
SOLOMONS ISLAND  1800   42 41  100/  2/  3   N/A
BISHOPS HEAD MD  1800   43 40  110/  4/  5 1005.2F
POTOMAC MD       1900   41 41  130/  4/  4 1005.2F   0
CAMBRIDGE MD     1800   43 40   70/  3/  4 1005.3F
LEWISETTA VA     1800   41 41  100/  3/  4 1006.3F
RAPPAHANNOCK LGT 1800          340/  9/  9 1006.7F
STINGRAY PT      1900   42 42   90/  4/  6 1006.4F   1
YORK RVR RNG VA  1800   42     100/  5/  6 1005.9F
YORKTOWN VA      1800   42 43   80/  9/  9 1006.3F
JAMESTOWN VA     1900   44 44  120/  4/  6   N/A     0
DOMINION TERM VA 1800   42     110/  6/  8 1006.6F
KIPTOPEKE VA     1800      42  310/  8/  9   N/A
CHES BAY BRIDGE  1800   41 44   10/  4/  6 1006.4F
CAPE HENRY VA    1800   42      10/  5/  6   N/A
CHESAPEAKE LGHT  1800   41      20/ 10/ 11 1007.6F
WILLOUBY STN VA  1800   41      90/  7/  8   N/A
CAPE HENRY BUOY  1828      46                N/A     8/13   7/13
1ST LANDING BUOY 1900      45                N/A
CAPE CHARLES BUO 1826      44                N/A    10/13  10/13
OFFSHORE WE BUOY 1821      46                N/A    10/11  10/11
64NM E OF VA BCH 1850   44 52  350/ 14/ 17 1005.9R  17/13  16/13
DUCK PIER NC     1800   42      20/ 10/ 11 1006.4F
44100 DUCK FRF   1824      47                N/A    13/13  10/13
44056 DUCK FRF   1811      45                N/A    10/13   8/13
OREGON INLET NC  1800   44 45  360/  7/ 11 1007.4F
HATTERAS NC      1800   45 50  280/  6/  9 1007.5F
DIAMOND SHLS NC  1850   45 72  280/  6/ 10 1008.5R  14/15  15/15
$$



USA.gov is the U.S. government's official web portal to all federal, state and local government web resources and services.